Location: Unspecified
(43.4680°N, 87.1740°E)
Time: 09:13:29
(UTC+00:00)

NOSS 0 Rocket - Pass Details

Date: 05 August 2021
Orbit: 936 x 954 km, 70.0° (Epoch: 18 September)

Event Time Altitude Azimuth Distance (km) Brightness Sun altitude
Rises 14:29:29 0° 341° (NNW) 3,637 8.0 -10.4°
Reaches altitude 10° 14:33:09 10° 3° (N) 2,686 6.8 -10.9°
Maximum altitude 14:36:56 16° 40° (NE) 2,252 5.9 -11.5°
Drops below altitude 10° 14:40:41 10° 78° (ENE) 2,672 5.9 -12.0°
Enters shadow 14:41:56 - 87° (E) 2,958 6.1 -12.2°
